User: anonymous   Login
Location: Cronhütte
(48.9135°N, 9.6869°E)
Time: 14:55:59
(UTC+00:00)
Language:

Helios 1A Rocket - Orbit

View from above orbital plane
View from above orbital plane
View from above satellite
View from above satellite

Ground track
Ground track

The orbit data is extracted from the following two-line orbital elements,

1 23608U 95033D   24195.90285897  .00014321  00000-0  83525-3 0  9995
2 23608  98.2548 321.8279 0015203 327.7701  32.2597 15.11993835574556
Epoch (UTC): 13 July 2024 21:40:07
Eccentricity: 0.0015203
inclination: 98.2548°
perigee height: 519 km
apogee height: 540 km
right ascension of ascending node: 321.8279°
argument of perigee: 327.7701°
revolutions per day: 15.11993835
mean anomaly at epoch: 32.2597°
orbit number at epoch: 57455

The dashed part of the orbit path shows where the satellite is in the earth's shadow,  

DLR